{"data":{"norad_id":59491,"intl_designator":"2024-071H","name":"STARLINK-31712","alt_names":[],"object_type":"PAYLOAD","status":"ACTIVE","operator":null,"country":"US","launch_date":"2024-04-13","launch_site_code":"AFETR","launch_vehicle":null,"mission":null,"orbit_class":"UNKNOWN","rcs_meters":null,"size_class":null,"mass_kg":null,"dimensions":null,"purposes":["comms"],"wikipedia_slug":null,"has_3d_model":false,"image_url":null,"decayed_at":null,"tle_current":{"epoch":"2026-05-25T01:26:58.655040Z","epoch_age_seconds":63073,"freshness":"FRESH","line1":"1 59491U 24071H   26145.06040110  .00014298  00000+0  52802-3 0  9995","line2":"2 59491  42.9971 279.8565 0001200 276.3796  83.6919 15.27583331119754","mean_motion":15.27583331,"eccentricity":0.00012,"inclination_deg":42.9971,"raan_deg":279.8565,"arg_perigee_deg":276.3796,"mean_anomaly_deg":83.6919,"bstar":0.00052802,"rev_number":11975,"period_min":94.266543158555,"perigee_km":482.21578071084,"apogee_km":483.86246298008,"semimajor_km":6861.1761218455,"source":"CELESTRAK","updated_at":"2026-05-25T13:38:18.953949Z"}}}